Content
SEND FEEDBACK

Daily
Averages
Monthly
Summary
United States of America

NEW RAYMER, COLORADO


Home > North America > United States > Colorado
Elevation: 4780 feet     Latitude: 40 35N     Longitude: 103 50W

WEATHER
 
SELECT A DAY
Number of Records: 227,530;   Date Range: 1/1/95 - 12/17/14
 
SHARE

PRINT THIS DATA

[ ← Previous Day ]
WEATHER ALMANAC - JANUARY 31, 2013
[ Next Day → ]
[ °C ]   °F
Weather ElementAverageHighLow
Temperature27 °F32 °F (3:53 pm)21 °F (10:53 pm)
Dewpoint18.4 °F21 °F (2:53 am)15.1 °F (8:53 pm)
Humidity70.3 %81 % (2:53 am)59 % (3:53 pm)
Barometer30.16 in30.28 in (7:53 pm)29.95 in (1:53 am)
Wind Speed7.9 mph17.3 mph (2:53 am)
Weather ElementAverage
Visibility9.5 mi
Wind DirectionSW (230.3 °)

Weather ElementTotal
Precipitation---
Heating Degree Days38.5 (Base 65)
Averaged from 29 records on January 31, 2013
WEATHER CONDITIONS BREAKOUT
WIND DIRECTION BREAKOUT
WEATHER BY HOUR - JANUARY 31, 2013
[ °C ]   °F
Local TimeTemperatureDewpointHumidityBarometerVisibilityWind DirectionWind SpeedGust SpeedPrecipitationEventsConditions
1:53 AM30.9 °F19.0 °F61 %29.95 in10.0 miWest (260°)10.4 mphOvercast
2:53 AM26.1 °F21.0 °F81 %29.99 in10.0 miNNE (20°)17.3 mphOvercast
3:53 AM26.1 °F19.9 °F78 %30.03 in10.0 miNorth (360°)9.2 mphOvercast
4:53 AM25.0 °F19.0 °F78 %30.04 in10.0 miNorth (350°)6.9 mphOvercast
5:53 AM24.1 °F18.0 °F77 %30.08 in10.0 miNNW (330°)6.9 mphOvercast
6:53 AM24.1 °F18.0 °F77 %30.11 in10.0 miNNW (330°)6.9 mphOvercast
7:53 AM25.0 °F18.0 °F75 %30.14 in10.0 miNorth (350°)5.8 mph0.00 inOvercast
8:53 AM25.0 °F19.0 °F78 %30.19 in1.8 miWNW (300°)6.9 mph0.00 inSnowLight Snow
9:02 AM24.8 °F19.4 °F80 %30.09 in3.0 miNW (320°)9.2 mph0.00 inSnowLight Snow
9:53 AM27.0 °F19.0 °F72 %30.21 in10.0 miNorth (10°)13.8 mph0.00 inOvercast
10:53 AM28.9 °F19.0 °F67 %30.23 in10.0 miNorth (360°)13.8 mphScattered Clouds
11:36 AM28.4 °F19.4 °F69 %30.13 in10.0 miNNW (330°)9.2 mphMostly Cloudy
11:53 AM30.0 °F19.9 °F66 %30.22 in10.0 miNNW (330°)12.7 mphOvercast
12:15 PM30.2 °F19.4 °F64 %30.12 in10.0 miNNW (340°)11.5 mphMostly Cloudy
12:53 PM30.0 °F19.0 °F64 %30.21 in10.0 miNorth (360°)9.2 mphScattered Clouds
1:12 PM30.2 °F19.4 °F64 %30.12 in10.0 miNNW (330°)4.6 mphMostly Cloudy
1:35 PM30.2 °F19.4 °F64 %30.12 in10.0 miWNW (290°)3.5 mphScattered Clouds
1:53 PM30.0 °F19.0 °F64 %30.19 in10.0 miWNW (290°)4.6 mphMostly Cloudy
2:18 PM30.2 °F17.6 °F60 %30.10 in10.0 miNNW (330°)3.5 mphScattered Clouds
2:53 PM30.9 °F19.0 °F61 %30.19 in10.0 miCalmClear
3:53 PM32.0 °F19.0 °F59 %30.18 in10.0 miCalmClear
4:53 PM30.0 °F19.0 °F64 %30.20 in10.0 miCalmClear
5:53 PM27.0 °F18.0 °F69 %30.22 in10.0 miSE (130°)6.9 mphClear
6:53 PM24.1 °F16.0 °F71 %30.26 in10.0 miSE (130°)8.1 mphClear
7:53 PM23.0 °F16.0 °F74 %30.28 in10.0 miSE (140°)10.4 mphClear
8:53 PM21.9 °F15.1 °F75 %30.28 in10.0 miSE (130°)9.2 mphClear
9:53 PM21.9 °F16.0 °F78 %30.27 in10.0 miSSE (150°)9.2 mphPartly Cloudy
10:53 PM21.0 °F15.1 °F78 %30.25 in10.0 miSSW (200°)9.2 mphClear
11:53 PM25.0 °F17.1 °F72 %30.21 in10.0 miSSW (210°)9.2 mphClear
Hourly data recorded from KSTK, located miles away from New Raymer, Colorado







STORIES FROM OUR PARTNERS